Eagle River, WI

5:17 AM CDT on May 27, 2017 (GMT -0500)
Eagle River Union

Weather History for KEGV - January, 2013

Change the Weather History Date:

Thursday, January 10, 2013

  Actual Average Record
Temperature  
Mean Temperature 29 °F -  
Max Temperature 41 °F 24 °F 42 °F (2012)
Min Temperature 17 °F 2 °F -16 °F (2009)
Degree Days  
Heating Degree Days 36    
Moisture  
Dew Point 17 °F    
Average Humidity 63    
Maximum Humidity 100    
Minimum Humidity 26    
Precipitation  
Precipitation 0.11 in - - ()
Sea Level Pressure  
Sea Level Pressure 30.18 in    
Wind  
Wind Speed 4 mph (SSE)    
Max Wind Speed 12 mph    
Max Gust Speed 21 mph    
Visibility 10 miles    
Events Rain    
Averages and records for this station are not official NWS values.
T = Trace of Precipitation, MM = Missing Value Source: NWS Daily Summary

Daily Weather History Graph

Daily Weather History Graph

Search for Another Location

Airport or City:

Trip Planner

Search our weather history database for the weather conditions in past years. The results will help you decide how hot, cold, wet, or windy it might be!

Date:

Astronomy

Jan. 10, 2013 Rise Set
Actual Time 7:37 AM CST 4:32 PM CST
Civil Twilight 7:03 AM CST 5:06 PM CST
Nautical Twilight 6:25 AM CST 5:43 PM CST
Astronomical Twilight 5:50 AM CST 6:19 PM CST
Moon 6:16 AM CST (1/10) 3:41 PM CST (1/10)
Length of Visible Light 10h 03m
Length of Day
8h 55m
Waning Crescent, 2% of the Moon is Illuminated
Jan 10
Waning Crescent
Jan 11
New
Jan 18
First Quarter
Jan 26
Full
Feb 3
Last Quarter

Hourly Weather History & Observations

Time (CST) Temp. Windchill Dew Point Humidity Pressure Visibility Wind Dir Wind Speed Gust Speed Precip Events Conditions
12:15 AM 17.6 °F - 14.0 °F 86% 30.30 in 10.0 mi Calm Calm - N/A   Clear
2:15 AM 17.6 °F 9.3 °F 17.6 °F 100% 30.34 in 10.0 mi SSW 5.8 mph - N/A   Clear
2:35 AM 21.2 °F 16.4 °F 17.6 °F 86% 30.35 in 10.0 mi SSW 3.5 mph - N/A   Clear
2:55 AM 21.2 °F - 15.8 °F 80% 30.35 in 10.0 mi Calm Calm - N/A   Clear
3:15 AM 21.2 °F - 17.6 °F 86% 30.36 in 10.0 mi Calm Calm - N/A   Clear
3:35 AM 21.2 °F 16.4 °F 17.6 °F 86% 30.36 in 10.0 mi SSW 3.5 mph - N/A   Clear
3:55 AM 21.2 °F - 17.6 °F 86% 30.37 in 10.0 mi Calm Calm - N/A   Clear
4:15 AM 21.2 °F 16.4 °F 17.6 °F 86% 30.37 in 10.0 mi SSW 3.5 mph - N/A   Clear
4:35 AM 21.2 °F 16.4 °F 17.6 °F 86% 30.37 in 10.0 mi South 3.5 mph - N/A   Clear
4:55 AM 21.2 °F - 17.6 °F 86% 30.36 in 10.0 mi Calm Calm - N/A   Clear
5:15 AM 19.4 °F - 17.6 °F 93% 30.36 in 10.0 mi Calm Calm - N/A   Clear
5:35 AM 19.4 °F 14.3 °F 15.8 °F 86% 30.36 in 10.0 mi SSE 3.5 mph - N/A   Clear
6:15 AM 19.4 °F 14.3 °F 15.8 °F 86% 30.35 in 10.0 mi South 3.5 mph - N/A   Clear
6:55 AM 19.4 °F - 15.8 °F 86% 30.34 in 10.0 mi Calm Calm - N/A   Clear
7:15 AM 19.4 °F 14.3 °F 15.8 °F 86% 30.34 in 10.0 mi South 3.5 mph - N/A   Clear
7:55 AM 21.2 °F 14.9 °F 17.6 °F 86% 30.34 in 10.0 mi South 4.6 mph - N/A   Clear
8:15 AM 21.2 °F 14.9 °F 17.6 °F 86% 30.33 in 10.0 mi SSE 4.6 mph - N/A   Clear
8:35 AM 21.2 °F 14.9 °F 17.6 °F 86% 30.33 in 10.0 mi SSE 4.6 mph - N/A   Clear
8:55 AM 23.0 °F 18.4 °F 17.6 °F 80% 30.32 in 10.0 mi South 3.5 mph - N/A   Clear
9:15 AM 28.4 °F - 17.6 °F 64% 30.32 in 10.0 mi Calm Calm - N/A   Clear
9:35 AM 30.2 °F 26.7 °F 15.8 °F 55% 30.32 in 10.0 mi SSW 3.5 mph - N/A   Clear
9:55 AM 32.0 °F 24.8 °F 14.0 °F 48% 30.32 in 10.0 mi South 8.1 mph - N/A   Clear
10:15 AM 32.0 °F 25.6 °F 14.0 °F 48% 30.31 in 10.0 mi South 6.9 mph - N/A   Clear
10:35 AM 33.8 °F 27.7 °F 12.2 °F 41% 30.30 in 10.0 mi South 6.9 mph - N/A   Clear
10:55 AM 35.6 °F 28.0 °F 12.2 °F 38% 30.28 in 10.0 mi South 10.4 mph - N/A   Clear
11:15 AM 37.4 °F 30.8 °F 12.2 °F 36% 30.28 in 10.0 mi South 9.2 mph - N/A   Clear
11:55 AM 39.2 °F 34.2 °F 10.4 °F 31% 30.24 in 10.0 mi SSW 6.9 mph - N/A   Clear
12:15 PM 39.2 °F 34.2 °F 8.6 °F 28% 30.22 in 10.0 mi SSW 6.9 mph - N/A   Clear
12:35 PM 41.0 °F 34.7 °F 8.6 °F 26% 30.22 in 10.0 mi SSW 10.4 mph 16.1 mph N/A   Clear
12:55 PM 41.0 °F 36.4 °F 8.6 °F 26% 30.20 in 10.0 mi SSW 6.9 mph - N/A   Clear
1:15 PM 41.0 °F 37.1 °F 8.6 °F 26% 30.20 in 10.0 mi SSW 5.8 mph - N/A   Clear
1:35 PM 41.0 °F 39.0 °F 8.6 °F 26% 30.19 in 10.0 mi South 3.5 mph - N/A   Clear
1:55 PM 41.0 °F 37.1 °F 10.4 °F 29% 30.18 in 10.0 mi SSE 5.8 mph - N/A   Clear
2:15 PM 41.0 °F 37.1 °F 10.4 °F 29% 30.16 in 10.0 mi SSE 5.8 mph - N/A   Clear
2:35 PM 41.0 °F 36.4 °F 8.6 °F 26% 30.16 in 10.0 mi South 6.9 mph - N/A   Clear
2:55 PM 39.2 °F 35.0 °F 8.6 °F 28% 30.16 in 10.0 mi SSE 5.8 mph - N/A   Clear
3:15 PM 37.4 °F 32.1 °F 10.4 °F 33% 30.16 in 10.0 mi SSE 6.9 mph - N/A   Clear
3:35 PM 37.4 °F 30.8 °F 10.4 °F 33% 30.16 in 10.0 mi South 9.2 mph 16.1 mph N/A   Clear
3:55 PM 37.4 °F 32.8 °F 10.4 °F 33% 30.16 in 10.0 mi SSE 5.8 mph - N/A   Clear
4:15 PM 35.6 °F 29.9 °F 10.4 °F 35% 30.14 in 10.0 mi SSE 6.9 mph - N/A   Clear
4:35 PM 35.6 °F 32.8 °F 12.2 °F 38% 30.13 in 10.0 mi SSE 3.5 mph - N/A   Clear
4:55 PM 35.6 °F 32.8 °F 12.2 °F 38% 30.13 in 10.0 mi SE 3.5 mph - N/A   Clear
5:15 PM 35.6 °F 29.2 °F 14.0 °F 41% 30.11 in 10.0 mi SE 8.1 mph - N/A   Clear
5:35 PM 33.8 °F 28.6 °F 14.0 °F 44% 30.11 in 10.0 mi SSE 5.8 mph - N/A   Clear
5:55 PM 33.8 °F 27.7 °F 15.8 °F 48% 30.10 in 10.0 mi SE 6.9 mph - N/A   Clear
6:15 PM 33.8 °F 28.6 °F 17.6 °F 52% 30.09 in 10.0 mi SSE 5.8 mph - N/A   Clear
6:35 PM 33.8 °F 27.0 °F 19.4 °F 56% 30.07 in 10.0 mi SSE 8.1 mph - N/A   Clear
6:55 PM 33.8 °F 25.3 °F 21.2 °F 60% 30.06 in 10.0 mi SE 11.5 mph 16.1 mph N/A   Clear
7:15 PM 33.8 °F 25.8 °F 21.2 °F 60% 30.05 in 10.0 mi SSE 10.4 mph 16.1 mph N/A   Clear
7:35 PM 33.8 °F 25.8 °F 21.2 °F 60% 30.03 in 10.0 mi SE 10.4 mph 16.1 mph N/A   Mostly Cloudy
7:55 PM 33.8 °F 27.0 °F 23.0 °F 65% 30.01 in 10.0 mi SSE 8.1 mph 18.4 mph N/A   Overcast
8:15 PM 33.8 °F 25.3 °F 23.0 °F 65% 29.99 in 10.0 mi SE 11.5 mph 17.3 mph N/A   Overcast
8:35 PM 33.8 °F 27.7 °F 24.8 °F 70% 29.99 in 10.0 mi SSE 6.9 mph 16.1 mph N/A Rain Rain
8:55 PM 33.8 °F 27.0 °F 26.6 °F 75% 29.97 in 7.0 mi SSE 8.1 mph - N/A Rain Rain
9:15 PM 32.0 °F 26.4 °F 28.4 °F 87% 29.94 in 4.0 mi SE 5.8 mph - 0.01 in   Overcast
9:35 PM 32.0 °F 23.6 °F 30.2 °F 93% 29.92 in 7.0 mi SE 10.4 mph 16.1 mph 0.03 in   Overcast
9:55 PM 32.0 °F 24.2 °F 30.2 °F 93% 29.90 in 10.0 mi SE 9.2 mph - 0.03 in   Overcast
10:15 PM 32.0 °F 23.6 °F 32.0 °F 100% 29.88 in 3.0 mi SE 10.4 mph 20.7 mph 0.02 in   Overcast
10:35 PM 32.0 °F 24.8 °F 32.0 °F 100% 29.88 in 4.0 mi SSE 8.1 mph - 0.04 in   Overcast
10:55 PM 32.0 °F 24.2 °F 32.0 °F 100% 29.85 in 4.0 mi SE 9.2 mph 16.1 mph 0.07 in   Overcast
11:35 PM 32.0 °F 24.2 °F 32.0 °F 100% 29.82 in 10.0 mi SSE 9.2 mph 18.4 mph 0.01 in   Overcast
11:55 PM 32.0 °F 24.2 °F 32.0 °F 100% 29.81 in 7.0 mi SSE 9.2 mph 17.3 mph 0.01 in   Overcast